TimeCDT,TemperatureF,Dew PointF,Humidity,Sea Level PressureIn,VisibilityMPH,Wind Direction,Wind SpeedMPH,Gust SpeedMPH,PrecipitationIn,Events,Conditions,WindDirDegrees,DateUTC
12:53 AM,77.0,62.1,60,29.67,10.0,SSE,12.7,-,N/A,,Clear,160,2013-05-31 05:53:00
1:53 AM,73.9,62.1,66,29.67,10.0,SSE,12.7,-,N/A,,Clear,160,2013-05-31 06:53:00
2:53 AM,72.0,62.1,71,29.67,10.0,SSE,10.4,-,N/A,,Clear,160,2013-05-31 07:53:00
3:53 AM,70.0,62.1,76,29.66,10.0,South,9.2,-,N/A,,Clear,170,2013-05-31 08:53:00
4:53 AM,69.1,59.0,70,29.67,10.0,South,9.2,-,N/A,,Clear,180,2013-05-31 09:53:00
5:53 AM,66.9,59.0,76,29.68,10.0,SSE,10.4,-,N/A,,Clear,160,2013-05-31 10:53:00
6:53 AM,66.9,60.1,79,29.70,10.0,SSE,9.2,-,N/A,,Clear,160,2013-05-31 11:53:00
7:53 AM,69.1,57.9,68,29.73,10.0,SSE,10.4,-,N/A,,Clear,150,2013-05-31 12:53:00
8:53 AM,75.0,59.0,57,29.75,10.0,SSE,6.9,-,N/A,,Clear,160,2013-05-31 13:53:00
9:53 AM,88.0,34.0,15,29.74,10.0,WSW,5.8,-,N/A,,Clear,250,2013-05-31 14:53:00
10:53 AM,93.9,30.9,11,29.72,10.0,NW,10.4,19.6,N/A,,Clear,310,2013-05-31 15:53:00
11:53 AM,96.1,28.9,9,29.72,10.0,Variable,4.6,20.7,N/A,,Clear,0,2013-05-31 16:53:00
12:53 PM,97.0,28.9,9,29.71,10.0,SW,9.2,19.6,N/A,,Clear,230,2013-05-31 17:53:00
1:53 PM,100.0,28.0,8,29.69,10.0,West,13.8,20.7,N/A,,Clear,260,2013-05-31 18:53:00
2:53 PM,100.9,27.0,7,29.66,10.0,WSW,10.4,-,N/A,,Clear,250,2013-05-31 19:53:00
3:53 PM,100.9,23.0,6,29.63,10.0,South,10.4,21.9,N/A,,Clear,190,2013-05-31 20:53:00
4:53 PM,102.0,23.0,6,29.60,10.0,SSW,10.4,19.6,N/A,,Clear,210,2013-05-31 21:53:00
5:53 PM,102.0,21.0,6,29.59,10.0,Calm,Calm,-,N/A,,Clear,0,2013-05-31 22:53:00
6:51 PM,98.6,50.0,19,29.74,10.0,East,16.1,25.3,N/A,,Clear,90,2013-05-31 23:51:00
6:53 PM,98.1,48.9,19,29.58,10.0,East,12.7,25.3,N/A,,Clear,90,2013-05-31 23:53:00
7:53 PM,96.1,51.1,22,29.59,10.0,East,11.5,-,N/A,,Clear,100,2013-06-01 00:53:00
8:53 PM,91.9,54.0,27,29.60,10.0,SE,13.8,24.2,N/A,,Clear,130,2013-06-01 01:53:00
9:53 PM,89.1,60.1,38,29.61,10.0,SSE,20.7,31.1,N/A,,Clear,150,2013-06-01 02:53:00
10:53 PM,86.0,61.0,43,29.63,10.0,SSE,11.5,21.9,N/A,,Clear,160,2013-06-01 03:53:00
11:53 PM,84.0,63.0,49,29.63,10.0,SSE,13.8,-,N/A,,Clear,160,2013-06-01 04:53:00